Back to catalog

DELTA 1 DEB

AliveSSO
NORAD 42647·DEBRIS·🇺🇸 United States

Launched Jun 12, 1975 from Vandenberg Space Force Base

Loading…

Next Passes (next 24 hours)

TLE

AgingSource: Space-Track

Epoch: Sep 9, 2026, 03:44 UTC

1 42647U 75052MG  26252.15555699 -.00000005  00000-0  73618-4 0  9999
2 42647  99.7547  38.9398 0066144 100.1746 260.6847 13.32610810 94838

Track DELTA 1 DEB in real time with AllMySat

Download on the App Store